sat.trackr.live / text

‹ back to catalog

SEDNA-1

NORAD 60580 · 2024-149DS

PAYLOAD ACTIVE UNKNOWN

§ Identity

Operator
Country
US
Launch date
2024-08-16
Launch site
AFWTR
Launch vehicle
Mass (kg)
RCS (m²)

External: N2YO · Heavens-Above · Gunter

§ Orbital elements

Epoch: 2026-09-22T17:01:46.063488Z

Period
95.49 min
Inclination
97.6577°
Eccentricity
0.0009025
Mean motion
15.08086635 rev/d
Perigee alt
535.8 km
Apogee alt
548.3 km
Semi-major
6,920.2 km
B*
3.3614e-4
RAAN
345.8013°
Arg perigee
24.2879°
Mean anomaly
335.8772°
Rev number
11,508

§ Raw data

SEDNA-11 60580U 24149DS  26265.70956092  .00005125  00000+0  33614-3 0  99902 60580  97.6577 345.8013 0009025  24.2879 335.8772 15.08086635115086

JSON: /api/v1/satellites/60580 · /tle

For live sub-satellite position, see the globe view (requires WebGL).

§ Visibility from observer

Set your observer location to see the next 7 days of passes ≥ 10°. The values pass through the URL so the page stays shareable.

No JS? Fill the form by hand. The geolocation button needs JavaScript.

§ Radio — SatNOGS DB

ModeDescriptionDownlinkUplink
GMSK Mode U - Transmitter 2 400.625 MHz
FM Mode U - Transmitter 1 (inactive) 400.575 MHz

2 transmitters · refreshed weekly from db.satnogs.org